Regional Weather Roundup
Issued by NWS Little Rock, AR

Home | Current Version | Previous Version | Text Only | Print | Product List | Glossary Off
Versions: 1 2 3 4 5 6 7 8 9 10 11 12 13 14 15 16 17 18 19 20 21 22 23 24 25 26 27 28 29 30 31 32 33 34 35 36 37 38 39 40 41 42 43 44 45 46 47 48 49 50

469
ASUS44 KLZK 271405
RWRLZK

WEATHER ROUNDUP FOR ARKANSAS
NATIONAL WEATHER SERVICE LITTLE ROCK AR
900 AM CDT SAT MAY 27 2017

NOTE: "FAIR" INDICATES FEW OR NO CLOUDS BELOW 12,000 FEET WITH NO
SIGNIFICANT WEATHER AND/OR OBSTRUCTIONS TO VISIBILITY.

ARZ001-003-010-029-271500-
NORTHWEST ARKANSAS

CITY           SKY/WX    TMP DP  RH WIND       PRES   REMARKS
FAYETTEVILLE   CLOUDY    78  74  87 S14       29.86S
FORT SMITH     CLOUDY    82  71  69 S7        29.85R HX  86
HARRISON       SUNNY     77  71  82 S10       29.88S
BENTONVILLE    CLOUDY    79  72  78 S10G20    29.86S
ROGERS         CLOUDY    79  72  79 S16       29.86S
SILOAM SPGS    CLOUDY    75  70  83 S14       29.84S
HIGHFILL       CLOUDY    79  74  84 S14       29.85S
SPRINGDALE     CLOUDY    79  73  83 S14       29.87S
$$

ARZ004-005-016-271500-
NORTH CENTRAL ARKANSAS

CITY           SKY/WX    TMP DP  RH WIND       PRES   REMARKS
BATESVILLE     CLOUDY    77  73  88 SW5       29.89R
FLIPPIN        CLOUDY    70  63  78 SE6       29.86S
MTN HOME       PTSUNNY   70  66  87 S3        29.88S
$$

ARZ040-041-271500-
WEST CENTRAL ARKANSAS

CITY           SKY/WX    TMP DP  RH WIND       PRES   REMARKS
MENA           CLOUDY    79  77  94 S3        29.90S
MOUNT IDA      CLOUDY    78  72  81 SW5       29.88R
$$

ARZ009-017-025-026-028-271500-
NORTHEAST ARKANSAS

CITY           SKY/WX    TMP DP  RH WIND       PRES   REMARKS
CORNING        FAIR      75  72  88 SW10      29.89R
JONESBORO      CLOUDY    77  73  87 SW15      29.87R
NEWPORT        PTSUNNY   79  74  84 SW14      29.88R
WALNUT RIDGE   CLOUDY    73  66  78 CALM      29.88S
BLYTHEVILLE    CLOUDY    76  74  93 SW12G20   29.89R
$$

ARZ022-023-033-042-044-271500-
CENTRAL ARKANSAS

CITY           SKY/WX    TMP DP  RH WIND       PRES   REMARKS
LITTLE ROCK    CLOUDY    77  74  90 SW13      29.91R
N LITTLE ROCK    N/A     76  73  88 SW6       29.89S
JACKSONVILLE   CLOUDY    79  74  85 SW10      29.90R
CONWAY           N/A     81  73  78 S12       29.87S HX  85
SEARCY         CLOUDY    78  75  90 S8        29.91S
HOT SPRINGS    CLOUDY    78  74  87 SW10      29.91R
RUSSELLVILLE   MOSUNNY   80  74  81 VRB6      29.86S HX  85
CLINTON        CLOUDY    75  73  94 CALM      29.89R FOG
$$

ARZ036-271500-
EAST ARKANSAS

CITY           SKY/WX    TMP DP  RH WIND       PRES   REMARKS
WEST MEMPHIS   CLOUDY    75  73  93 S10       29.91S
$$

ARZ050-053-066-070-073-271500-
SOUTHWEST ARKANSAS

CITY           SKY/WX    TMP DP  RH WIND       PRES   REMARKS
ARKADELPHIA    CLOUDY    77  74  90 MISG      29.91S
CAMDEN         PTSUNNY   79  72  78 S10       29.92R
TEXARKANA      CLOUDY    78  75  90 S10       29.91R
EL DORADO      CLOUDY    77  74  90 S8        29.93S
DE QUEEN       CLOUDY    79  76  90 S7        29.87S
$$

ARZ056-057-069-271500-
SOUTHEAST ARKANSAS

CITY           SKY/WX    TMP DP  RH WIND       PRES   REMARKS
PINE BLUFF     CLOUDY    78  73  84 SW10      29.93R
STUTTGART      CLOUDY    79  64  61 S12       29.93S
MONTICELLO     CLOUDY    78  73  84 S12G17    29.94R

$$






USA.gov is the U.S. government's official web portal to all federal, state and local government web resources and services.